When you browse on this site, cookies collect data to enhance your experience and personalize the content and advertising you see.
Visit our Privacy Policy to learn more. By continuing to use the site, you agree to this use of cookies and data.
  • In Latvia
  • List of Countries
  • For 7 days
  • Water Temperature
  • Satellite Maps
  • Weather Map
  • Weather Widgets
  • user-avatar
    Login

    Hourly Weather Yakima

    Today, 17 December, Monday

    Time Temperature Precipitation Wind Pressure Humidity
    00:00 +6°C° 0 mm 1 mps 730 mmHg 91%
    01:00 +6°C° 0 mm 1 mps 730 mmHg 90%
    02:00 +5°C° 0 mm 2 mps 730 mmHg 89%
    03:00 +4°C° 0 mm 2 mps 731 mmHg 88%
    04:00 +5°C° 0 mm 2 mps 731 mmHg 85%
    05:00 +4°C° 0 mm 2 mps 731 mmHg 85%
    06:00 +4°C° 0 mm 2 mps 732 mmHg 85%
    07:00 +4°C° 0 mm 2 mps 732 mmHg 84%
    08:00 +5°C° 0 mm 2 mps 732 mmHg 81%
    09:00 +6°C° 0 mm 2 mps 732 mmHg 78%
    10:00 +7°C° 0 mm 2 mps 733 mmHg 75%
    11:00 +8°C° 0 mm 2 mps 732 mmHg 72%
    12:00 +9°C° 0 mm 3 mps 732 mmHg 69%
    13:00 +10°C° 0 mm 3 mps 732 mmHg 65%
    14:00 +9°C° 0 mm 3 mps 731 mmHg 69%
    15:00 +8°C° 0 mm 2 mps 731 mmHg 72%
    16:00 +7°C° 0 mm 2 mps 731 mmHg 75%
    17:00 +7°C° 0.2 mm 2 mps 731 mmHg 76%
    18:00 +7°C° 0.2 mm 2 mps 730 mmHg 77%
    19:00 +6°C° 0.2 mm 2 mps 730 mmHg 78%
    20:00 +6°C° 0.8 mm 2 mps 729 mmHg 81%
    21:00 +6°C° 0.8 mm 2 mps 729 mmHg 83%
    22:00 +5°C° 0.8 mm 3 mps 728 mmHg 86%
    23:00 +5°C° 0.5 mm 3 mps 728 mmHg 87%

    Tomorrow, 18 December, Tuesday

    Time Temperature Precipitation Wind Pressure Humidity
    00:00 +5°C° 0.5 mm 3 mps 727 mmHg 88%
    01:00 +5°C° 0.5 mm 3 mps 727 mmHg 89%
    02:00 +5°C° 0.9 mm 3 mps 726 mmHg 90%
    03:00 +5°C° 0.9 mm 3 mps 725 mmHg 90%
    04:00 +6°C° 0.9 mm 2 mps 724 mmHg 91%
    05:00 +7°C° 0.4 mm 3 mps 724 mmHg 90%
    06:00 +7°C° 0.4 mm 3 mps 724 mmHg 90%
    07:00 +7°C° 0.4 mm 3 mps 723 mmHg 90%
    08:00 +7°C° 0.6 mm 4 mps 724 mmHg 88%
    09:00 +8°C° 0.6 mm 4 mps 724 mmHg 85%
    10:00 +9°C° 0.6 mm 5 mps 724 mmHg 83%
    11:00 +9°C° 0.5 mm 5 mps 725 mmHg 80%
    12:00 +9°C° 0.5 mm 6 mps 726 mmHg 77%
    13:00 +10°C° 0.5 mm 6 mps 726 mmHg 74%
    14:00 +9°C° 0.3 mm 6 mps 727 mmHg 74%
    15:00 +8°C° 0.3 mm 6 mps 728 mmHg 74%
    16:00 +8°C° 0.3 mm 5 mps 728 mmHg 74%
    17:00 +7°C° 0.4 mm 5 mps 729 mmHg 76%
    18:00 +7°C° 0.4 mm 5 mps 729 mmHg 77%
    19:00 +7°C° 0.4 mm 5 mps 730 mmHg 78%
    20:00 +6°C° 0.2 mm 5 mps 731 mmHg 77%
    21:00 +6°C° 0.2 mm 5 mps 732 mmHg 76%
    22:00 +6°C° 0.2 mm 5 mps 733 mmHg 76%
    23:00 +6°C° 0.1 mm 4 mps 734 mmHg 76%

    Day after tomorrow, 19 December, Wednesday

    Time Temperature Precipitation Wind Pressure Humidity
    00:00 +5°C° 0.1 mm 4 mps 735 mmHg 77%
    01:00 +5°C° 0.1 mm 3 mps 736 mmHg 77%
    02:00 +5°C° 0 mm 3 mps 736 mmHg 78%
    03:00 +4°C° 0 mm 3 mps 737 mmHg 78%
    04:00 +4°C° 0 mm 3 mps 737 mmHg 79%
    05:00 +4°C° 0 mm 3 mps 737 mmHg 79%
    06:00 +3°C° 0 mm 3 mps 738 mmHg 79%
    07:00 +3°C° 0 mm 3 mps 738 mmHg 79%
    08:00 +4°C° 0 mm 3 mps 738 mmHg 77%
    09:00 +5°C° 0 mm 3 mps 739 mmHg 75%
    10:00 +7°C° 0 mm 2 mps 739 mmHg 73%
    11:00 +7°C° 0 mm 2 mps 739 mmHg 70%
    12:00 +8°C° 0 mm 2 mps 738 mmHg 68%
    13:00 +9°C° 0 mm 2 mps 738 mmHg 65%
    14:00 +8°C° 0 mm 2 mps 737 mmHg 69%
    15:00 +8°C° 0 mm 1 mps 737 mmHg 72%
    16:00 +8°C° 0 mm 1 mps 736 mmHg 75%
    17:00 +8°C° 0 mm 1 mps 736 mmHg 75%
    18:00 +8°C° 0 mm 1 mps 736 mmHg 75%
    19:00 +7°C° 0 mm 1 mps 736 mmHg 75%
    20:00 +7°C° 0 mm 1 mps 735 mmHg 76%
    21:00 +7°C° 0 mm 1 mps 735 mmHg 77%
    22:00 +7°C° 0 mm 1 mps 734 mmHg 78%
    23:00 +6°C° 0 mm 1 mps 733 mmHg 79%

    20 December, Thursday

    Time Temperature Precipitation Wind Pressure Humidity
    00:00 +6°C° 0 mm 1 mps 733 mmHg 81%
    01:00 +6°C° 0 mm 1 mps 732 mmHg 82%
    02:00 +6°C° 0 mm 1 mps 731 mmHg 83%
    03:00 +5°C° 0 mm 1 mps 731 mmHg 84%
    04:00 +5°C° 0 mm 1 mps 730 mmHg 85%
    05:00 +5°C° 0.1 mm 1 mps 730 mmHg 85%
    06:00 +5°C° 0.1 mm 1 mps 730 mmHg 86%
    07:00 +5°C° 0.1 mm 1 mps 730 mmHg 86%
    08:00 +6°C° 0.3 mm 1 mps 730 mmHg 85%
    09:00 +6°C° 0.3 mm 2 mps 730 mmHg 84%
    10:00 +7°C° 0.3 mm 2 mps 731 mmHg 82%
    11:00 +8°C° 0 mm 2 mps 731 mmHg 78%
    12:00 +9°C° 0 mm 3 mps 731 mmHg 74%
    13:00 +10°C° 0 mm 4 mps 730 mmHg 70%
    14:00 +10°C° 0 mm 3 mps 731 mmHg 73%
    15:00 +9°C° 0 mm 3 mps 731 mmHg 75%
    16:00 +8°C° 0 mm 2 mps 731 mmHg 77%
    17:00 +7°C° 0 mm 2 mps 731 mmHg 78%
    18:00 +7°C° 0 mm 2 mps 731 mmHg 79%
    19:00 +6°C° 0 mm 2 mps 731 mmHg 80%
    20:00 +6°C° 0 mm 2 mps 731 mmHg 79%
    21:00 +5°C° 0 mm 2 mps 731 mmHg 78%
    22:00 +5°C° 0 mm 2 mps 731 mmHg 78%
    23:00 +4°C° 0 mm 3 mps 731 mmHg 77%

    21 December, Friday

    Time Temperature Precipitation Wind Pressure Humidity
    00:00 +3°C° 0 mm 3 mps 731 mmHg 77%
    01:00 +3°C° 0 mm 3 mps 731 mmHg 77%
    02:00 +2°C° 0 mm 3 mps 732 mmHg 77%
    03:00 +1°C° 0 mm 3 mps 732 mmHg 77%
    04:00 0°C° 0 mm 4 mps 733 mmHg 76%
    05:00 -1°C° 0 mm 4 mps 734 mmHg 75%
    06:00 0°C° 0 mm 3 mps 734 mmHg 74%
    07:00 -1°C° 0 mm 3 mps 735 mmHg 74%
    08:00 -1°C° 0 mm 4 mps 735 mmHg 68%
    09:00 0°C° 0 mm 4 mps 736 mmHg 62%
    10:00 +1°C° 0 mm 4 mps 737 mmHg 57%
    11:00 +3°C° 0 mm 3 mps 737 mmHg 54%
    12:00 +4°C° 0 mm 3 mps 737 mmHg 51%
    13:00 +6°C° 0 mm 2 mps 737 mmHg 48%
    14:00 +5°C° 0 mm 2 mps 737 mmHg 52%
    15:00 +5°C° 0 mm 1 mps 737 mmHg 57%
    16:00 +4°C° 0 mm 1 mps 737 mmHg 61%
    17:00 +3°C° 0 mm 1 mps 737 mmHg 63%
    18:00 +2°C° 0 mm 1 mps 737 mmHg 64%
    19:00 +1°C° 0 mm 1 mps 737 mmHg 66%
    20:00 +1°C° 0 mm 1 mps 737 mmHg 66%
    21:00 +1°C° 0 mm 1 mps 737 mmHg 67%
    22:00 +1°C° 0 mm 1 mps 736 mmHg 67%
    23:00 +1°C° 0 mm 1 mps 736 mmHg 67%

    22 December, Saturday

    Time Temperature Precipitation Wind Pressure Humidity
    00:00 +1°C° 0 mm 1 mps 736 mmHg 67%
    01:00 +1°C° 0 mm 1 mps 736 mmHg 68%
    02:00 +1°C° 0 mm 1 mps 736 mmHg 67%
    03:00 +1°C° 0 mm 1 mps 736 mmHg 67%
    04:00 +1°C° 0 mm 1 mps 736 mmHg 67%
    05:00 +1°C° 0 mm 1 mps 737 mmHg 67%
    06:00 +1°C° 0 mm 1 mps 737 mmHg 67%
    07:00 +1°C° 0 mm 1 mps 737 mmHg 66%
    08:00 +2°C° 0 mm 1 mps 737 mmHg 64%
    09:00 +3°C° 0 mm 1 mps 737 mmHg 61%
    10:00 +4°C° 0 mm 1 mps 738 mmHg 58%
    11:00 +4°C° 0 mm 1 mps 737 mmHg 57%
    12:00 +5°C° 0 mm 1 mps 737 mmHg 55%
    13:00 +6°C° 0 mm 1 mps 736 mmHg 53%
    14:00 +5°C° 0 mm 1 mps 736 mmHg 57%
    15:00 +4°C° 0 mm 1 mps 736 mmHg 61%
    16:00 +3°C° 0 mm 1 mps 736 mmHg 65%
    17:00 +2°C° 0 mm 1 mps 736 mmHg 67%
    18:00 +2°C° 0 mm 1 mps 736 mmHg 68%
    19:00 +1°C° 0 mm 1 mps 736 mmHg 70%
    20:00 +1°C° 0 mm 1 mps 736 mmHg 69%
    21:00 +1°C° 0 mm 1 mps 735 mmHg 68%
    22:00 +2°C° 0 mm 1 mps 735 mmHg 68%
    23:00 +2°C° 0 mm 1 mps 735 mmHg 68%
    Show more